[[{"header":{"parameterUnit":"m.s-1","parameterCategory":1,"la1":30.2991,"la2":30.254,"lo1":-89.0895,"lo2":-89.0444,"dy":0.0017,"dx":0.0017,"nx":28,"ny":28,"refTime":"2024-08-27T21:00:00:Z","depth":0,"parameterNumber":2,"parameterNumberName":"U-component_of_WINDS"},"data":[0,0,0,0,0,0,0,0,0,0,0,0,0,0,0,0,0,0,0,0,0,0,0,0,0,0,0,0,0,0,0,0,0,0,0,0,0,0,0,0,0,0,0,0,0,0,0,0,0,0,0,0,0,0,0,0,0,0,-1.9498,-1.9499,0,-1.9514,-1.9514,-1.9514,-1.9434,-1.9431,-1.9429,-1.9427,-1.9446,-1.9449,-1.9451,0,0,0,0,0,0,0,0,0,0,0,0,0,-1.9402,-1.9404,-1.9498,-1.9499,-1.9499,-1.9514,-1.9514,-1.9514,-1.9434,-1.9431,-1.9429,-1.9426,-1.9445,-1.9448,-1.9451,0,0,0,0,0,0,0,0,0,0,0,0,0,-1.9434,-1.9405,-1.9498,-1.946,-1.9457,-1.9514,-1.9514,-1.9514,-1.9435,-1.9431,-1.9428,-1.9425,-1.9444,-1.9448,-1.9452,-1.9547,0,0,-1.9464,-1.9466,0,0,0,0,0,0,0,0,-1.9432,-1.9437,-1.9466,-1.9463,-1.946,-1.9468,-1.9487,-1.9525,-1.9436,-1.9443,-1.9427,-1.9423,-1.9456,-1.9459,-1.947,-1.9547,-1.9548,-1.9465,-1.9467,-1.9469,-1.947,0,0,0,0,0,0,0,-1.943,-1.9436,-1.9505,-1.9466,-1.9463,-1.9444,-1.9444,-1.9494,-1.9469,-1.9442,-1.9437,-1.9439,-1.9454,-1.9466,-1.947,-1.9549,-1.9464,-1.9468,-1.947,-1.9472,-1.9706,-1.9709,0,0,0,0,0,0,-1.9432,-1.9435,-1.9504,-1.9505,-1.9437,-1.9448,-1.9449,-1.9469,-1.9469,-1.9465,-1.9442,-1.9436,-1.9461,-1.9465,-1.947,-1.9582,-1.9469,-1.9472,-1.9475,-1.9702,-1.9706,-1.9711,0,0,0,0,0,0,-1.943,-1.9439,-1.9503,-1.9468,-1.9475,-1.9454,-1.9477,-1.9471,-1.9483,-1.9469,-1.9464,-1.9459,-1.9458,-1.9464,-1.9528,-1.9581,-1.9474,-1.9478,-1.9697,-1.9703,-1.9709,-1.9805,0,0,0,0,0,0,-1.9428,-1.9439,-1.9474,-1.947,-1.9477,-1.9561,-1.948,-1.9474,-1.949,-1.9481,-1.9483,-1.948,-1.9456,-1.9523,-1.9532,-1.9585,-1.9481,-1.9693,-1.97,-1.9707,-1.9797,-1.9814,-1.9828,0,0,0,0,0,-1.9425,-1.9501,-1.9476,-1.9485,-1.952,-1.9564,-1.9568,-1.9538,-1.9495,-1.953,-1.9521,-1.948,-1.9574,-1.953,-1.954,-1.9595,-1.9689,-1.9698,-1.9706,-1.979,-1.981,-1.9827,0,0,0,0,0,0,-1.9513,-1.95,-1.9472,-1.9549,-1.9558,-1.955,-1.9594,-1.956,-1.9583,-1.9574,-1.9537,-1.9538,-1.9608,-1.9607,-1.9559,-1.9687,-1.9624,-1.9635,-1.9685,-1.9703,-1.9718,-1.9717,-1.9484,0,0,0,0,0,-1.9541,-1.9577,-1.9563,-1.9633,-1.9639,-1.9616,-1.9634,-1.961,-1.9618,-1.9622,-1.9617,-1.9628,-1.9659,-1.9681,-1.9709,-1.9796,-1.9796,-1.9839,-1.9854,-1.9867,-1.9877,-1.9924,-1.9943,-1.9739,-1.9739,-1.9738,0,0,-1.9601,-1.9598,-1.9622,-1.965,-1.9655,-1.9693,-1.962,-1.9663,-1.9692,-1.9629,-1.9688,-1.9686,-1.9695,-1.9771,-1.9804,-1.9773,-1.9933,-1.9878,-1.9888,-1.9891,-1.9935,-1.9954,-1.9972,-1.9744,-1.9743,-1.9742,0,0,-1.9728,-1.9729,-1.9787,-1.9793,-1.98,-1.9784,-1.9798,-1.9795,-1.9791,-1.985,-1.9804,-1.9837,-1.9893,-1.9902,-1.9913,-2.0045,-2.0009,-2.0055,-2.0135,-2.0181,-2.0197,-2.0211,-2.0259,-2.0277,-2.0065,-2.0065,-2.0066,0,-1.9801,-1.9856,-1.9821,-1.9868,-1.9883,-1.9826,-1.9885,-1.9893,-1.991,-1.9921,-1.9885,-1.9954,-1.9956,-2.0034,-2.0066,-2.0077,-2.0093,-2.0055,-2.0197,-2.0211,-2.0224,-2.0269,-2.0287,-2.0071,-2.007,-2.007,-2.0069,0,-1.9946,-1.9985,-2.0031,-2.0048,-2.0067,-2.012,-2.0095,-2.0119,-2.0093,-2.0082,-2.0144,-2.0144,-2.0172,-2.0189,-2.0165,-2.0264,-2.0244,-2.0203,-2.014,-2.025,-2.0292,-2.0309,-2.0079,-2.0077,-2.0076,-2.0074,0,0,-2.013,-2.0126,-2.0144,-2.0151,-2.0155,-2.0185,-2.0236,-2.0263,-2.0284,-2.0298,-2.0341,-2.0389,-2.0351,-2.0365,-2.0341,-2.0382,-2.0487,-2.0336,-2.0336,-2.0365,-2.0598,-2.063,-2.065,-2.0463,-2.0466,-2.0469,-2.0598,0,-2.0256,-2.0341,-2.0312,-2.04,-2.0436,-2.0383,-2.0428,-2.0436,-2.0426,-2.0457,-2.0447,-2.0482,-2.0429,-2.0437,-2.0475,-2.0467,-2.0534,-2.0457,-2.0504,-2.0506,-2.0504,-2.0672,-2.0705,-2.0827,-2.0614,-2.0617,-2.0618,0,-2.0414,-2.0433,-2.0524,-2.0522,-2.0536,-2.0577,-2.0599,-2.0628,-2.0637,-2.0627,-2.0642,-2.061,-2.0661,-2.0597,-2.0668,-2.0616,-2.0634,-2.0633,-2.0637,-2.0641,-2.057,-2.0682,-2.0865,-2.0884,-2.0644,-2.0642,-2.064,0,-2.054,-2.0589,-2.065,-2.0657,-2.0656,-2.0686,-2.0687,-2.0692,-2.071,-2.073,-2.0741,-2.0767,-2.0782,-2.0803,-2.078,-2.0735,-2.0855,-2.0788,-2.0849,-2.085,-2.0878,-2.0877,-2.1068,-2.0888,-2.0887,-2.0887,-2.0887,0,-2.0684,-2.0742,-2.0706,-2.0744,-2.0809,-2.0774,-2.0839,-2.0834,-2.0839,-2.0876,-2.0832,-2.0868,-2.0834,-2.0867,-2.0849,-2.0911,-2.0918,-2.0912,-2.0907,-2.0917,-2.0918,-2.0929,-2.092,-2.0892,-2.0891,-2.089,-2.0889,0,-2.0837,-2.0815,-2.0878,-2.0872,-2.0871,-2.0919,-2.0914,-2.095,-2.0937,-2.0985,-2.0994,-2.0975,-2.1011,-2.099,-2.1027,-2.1015,-2.1096,-2.1079,-2.1094,-2.1089,-2.1152,-2.1147,-2.1358,-2.1384,-2.1187,-2.1188,-2.119,0,-2.093,-2.0974,-2.0972,-2.0993,-2.0997,-2.1032,-2.1049,-2.1018,-2.1039,-2.1052,-2.1086,-2.1118,-2.1143,-2.1205,-2.1195,-2.1224,-2.1208,-2.1279,-2.1212,-2.1221,-2.121,-2.1208,-2.1213,-2.1294,-2.1296,-2.1298,-2.1299,0,-2.11,-2.1087,-2.1114,-2.1138,-2.116,-2.1178,-2.1191,-2.1212,-2.118,-2.1206,-2.1242,-2.1261,-2.1299,-2.1333,-2.1358,-2.136,-2.1326,-2.132,-2.1336,-2.1348,-2.1355,-2.1353,-2.1132,-2.1316,-2.1314,-2.1313,-2.1312,-2.1311,-2.1226,-2.1263,-2.1267,-2.1299,-2.1306,-2.132,-2.1354,-2.1345,-2.1374,-2.1403,-2.1382,-2.1426,-2.1434,-2.1463,-2.147,-2.1505,-2.1476,-2.1499,-2.1505,-2.1511,-2.1521,-2.1348,-2.1509,-2.1509,-2.1508,-2.1508,-2.1507,0,-2.1394,-2.1394,-2.1424,-2.1445,-2.147,-2.1433,-2.1447,-2.1471,-2.151,-2.152,-2.1545,-2.1588,-2.162,-2.1613,-2.1643,-2.1672,-2.1657,-2.1681,-2.1679,-2.1681,-2.1544,-2.1528,-2.1693,-2.1693,-2.1693,-2.1693,-2.1693,-2.1693,-2.1485,-2.1545,-2.1533,-2.1596,-2.1596,-2.1638,-2.1649,-2.1662,-2.167,-2.1719,-2.1746,-2.174,-2.1744,-2.1774,-2.1802,-2.1799,-2.1813,-2.1844,-2.1835,-2.1708,-2.169,-2.1673,-2.1657,-2.1846,-2.1847,-2.1969,-2.197,-2.1971]},{"header":{"parameterUnit":"m.s-1","parameterCategory":1,"la1":30.2991,"la2":30.254,"lo1":-89.0895,"lo2":-89.0444,"dy":0.0017,"dx":0.0017,"nx":28,"ny":28,"refTime":"2024-08-27T21:00:00:Z","depth":0,"parameterNumber":3,"parameterNumberName":"V-component_of_WINDS"},"data":[0,0,0,0,0,0,0,0,0,0,0,0,0,0,0,0,0,0,0,0,0,0,0,0,0,0,0,0,0,0,0,0,0,0,0,0,0,0,0,0,0,0,0,0,0,0,0,0,0,0,0,0,0,0,0,0,0,0,-2.206,-2.206,0,-2.2085,-2.2086,-2.2086,-2.2059,-2.2058,-2.2057,-2.2056,-2.2081,-2.2083,-2.2084,0,0,0,0,0,0,0,0,0,0,0,0,0,-2.1987,-2.1989,-2.206,-2.206,-2.2061,-2.2085,-2.2086,-2.2086,-2.2059,-2.2058,-2.2057,-2.2056,-2.2081,-2.2083,-2.2085,0,0,0,0,0,0,0,0,0,0,0,0,0,-2.2016,-2.1989,-2.206,-2.2051,-2.205,-2.2085,-2.2086,-2.2086,-2.206,-2.2058,-2.2057,-2.2055,-2.208,-2.2082,-2.2085,-2.213,0,0,-2.2092,-2.2093,0,0,0,0,0,0,0,0,-2.2015,-2.2019,-2.2052,-2.2051,-2.2051,-2.2068,-2.2069,-2.2101,-2.206,-2.2056,-2.2056,-2.2054,-2.2078,-2.208,-2.2088,-2.2132,-2.2133,-2.2092,-2.2094,-2.2095,-2.2096,0,0,0,0,0,0,0,-2.2013,-2.2018,-2.207,-2.2052,-2.2052,-2.2044,-2.2047,-2.2075,-2.2075,-2.2056,-2.2054,-2.2058,-2.2077,-2.2086,-2.2089,-2.2133,-2.2092,-2.2095,-2.2096,-2.2097,-2.2213,-2.2214,0,0,0,0,0,0,-2.2012,-2.2016,-2.2069,-2.2071,-2.2028,-2.2047,-2.205,-2.2064,-2.2075,-2.2075,-2.2059,-2.2056,-2.2083,-2.2086,-2.209,-2.2142,-2.2095,-2.2097,-2.2099,-2.2211,-2.2213,-2.2215,0,0,0,0,0,0,-2.201,-2.2017,-2.2068,-2.2043,-2.2049,-2.205,-2.2066,-2.2065,-2.2074,-2.2077,-2.2077,-2.2068,-2.2082,-2.2086,-2.212,-2.2143,-2.2098,-2.21,-2.2209,-2.2212,-2.2214,-2.2249,0,0,0,0,0,0,-2.2008,-2.2016,-2.2035,-2.2044,-2.205,-2.2099,-2.2067,-2.2067,-2.2078,-2.2075,-2.2085,-2.2086,-2.2081,-2.2117,-2.2122,-2.2145,-2.2102,-2.2207,-2.221,-2.2213,-2.2246,-2.2252,-2.2258,0,0,0,0,0,-2.2006,-2.2044,-2.2036,-2.2042,-2.2073,-2.2101,-2.2104,-2.2098,-2.208,-2.2098,-2.2099,-2.2085,-2.214,-2.212,-2.2127,-2.2151,-2.2206,-2.2209,-2.2213,-2.2243,-2.2251,-2.2258,0,0,0,0,0,0,-2.2038,-2.2045,-2.2036,-2.2078,-2.2089,-2.2096,-2.2118,-2.2107,-2.2123,-2.212,-2.2111,-2.2113,-2.2149,-2.2153,-2.2132,-2.2194,-2.2169,-2.2175,-2.219,-2.2198,-2.2204,-2.2202,-2.2104,0,0,0,0,0,-2.205,-2.2072,-2.2077,-2.2113,-2.2119,-2.2118,-2.2129,-2.2124,-2.2134,-2.2139,-2.2143,-2.2154,-2.2173,-2.2186,-2.2204,-2.2246,-2.2247,-2.2266,-2.2272,-2.2277,-2.2281,-2.2302,-2.231,-2.2227,-2.2227,-2.2227,0,0,-2.2075,-2.2081,-2.2096,-2.212,-2.2127,-2.215,-2.2122,-2.2147,-2.2163,-2.2143,-2.2174,-2.2178,-2.2189,-2.2227,-2.2244,-2.2232,-2.2304,-2.2282,-2.2286,-2.2287,-2.2307,-2.2315,-2.2322,-2.2229,-2.2229,-2.2228,0,0,-2.2131,-2.2139,-2.2169,-2.2177,-2.2189,-2.2187,-2.2195,-2.2203,-2.2204,-2.2236,-2.2221,-2.2239,-2.2273,-2.2281,-2.229,-2.2347,-2.2334,-2.2353,-2.2385,-2.2405,-2.2412,-2.2418,-2.2437,-2.2444,-2.2358,-2.2358,-2.2358,0,-2.2161,-2.2194,-2.2186,-2.2212,-2.2222,-2.2204,-2.2234,-2.2242,-2.2259,-2.2266,-2.2252,-2.2293,-2.2299,-2.2338,-2.2352,-2.236,-2.2367,-2.2352,-2.2412,-2.2417,-2.2423,-2.2441,-2.2448,-2.236,-2.236,-2.2359,-2.2359,0,-2.2229,-2.2252,-2.2275,-2.2291,-2.2304,-2.2332,-2.2328,-2.2341,-2.2334,-2.2334,-2.2365,-2.2372,-2.239,-2.2399,-2.2392,-2.2436,-2.2428,-2.2413,-2.2388,-2.2433,-2.245,-2.2457,-2.2363,-2.2362,-2.2361,-2.2361,0,0,-2.2307,-2.2317,-2.2326,-2.2332,-2.2343,-2.236,-2.2386,-2.2404,-2.2415,-2.2427,-2.2448,-2.2476,-2.2462,-2.2471,-2.2465,-2.2484,-2.2527,-2.2466,-2.2466,-2.2476,-2.2574,-2.2585,-2.2593,-2.2518,-2.252,-2.2521,-2.2573,0,-2.2363,-2.2409,-2.2401,-2.2445,-2.2465,-2.2448,-2.247,-2.2479,-2.2479,-2.2495,-2.2495,-2.2514,-2.2495,-2.25,-2.2517,-2.2518,-2.2546,-2.2514,-2.2537,-2.2538,-2.2534,-2.2602,-2.2614,-2.2663,-2.2579,-2.258,-2.2581,0,-2.2435,-2.2448,-2.2494,-2.2499,-2.2507,-2.2528,-2.2542,-2.2559,-2.2567,-2.2566,-2.2576,-2.2566,-2.2591,-2.2565,-2.2599,-2.2577,-2.2586,-2.2587,-2.2589,-2.259,-2.2562,-2.2604,-2.2678,-2.2685,-2.2592,-2.2591,-2.259,0,-2.2486,-2.2515,-2.2546,-2.2552,-2.256,-2.2574,-2.2578,-2.2585,-2.2595,-2.2608,-2.2614,-2.263,-2.2638,-2.2649,-2.2643,-2.2626,-2.2678,-2.2652,-2.2676,-2.2676,-2.2688,-2.2687,-2.2763,-2.2695,-2.2695,-2.2694,-2.2694,0,-2.2548,-2.2577,-2.2569,-2.2588,-2.2618,-2.2609,-2.2639,-2.2641,-2.2647,-2.2665,-2.2651,-2.2668,-2.2659,-2.2675,-2.2671,-2.2698,-2.2702,-2.2701,-2.2699,-2.2702,-2.2702,-2.2707,-2.2704,-2.2696,-2.2696,-2.2696,-2.2695,0,-2.2611,-2.2607,-2.2639,-2.2643,-2.2644,-2.2666,-2.2669,-2.2686,-2.2685,-2.2707,-2.2712,-2.2709,-2.2728,-2.2723,-2.2743,-2.2739,-2.2774,-2.2768,-2.2771,-2.2769,-2.2794,-2.2791,-2.2875,-2.2885,-2.2811,-2.2812,-2.2812,0,-2.2651,-2.2672,-2.2678,-2.2689,-2.2693,-2.2711,-2.2721,-2.2713,-2.2724,-2.2734,-2.2749,-2.2766,-2.2779,-2.2809,-2.2808,-2.2823,-2.2817,-2.2845,-2.2819,-2.282,-2.2816,-2.2814,-2.2816,-2.285,-2.2851,-2.2852,-2.2852,0,-2.2722,-2.2719,-2.2734,-2.2748,-2.276,-2.277,-2.278,-2.2789,-2.2781,-2.2794,-2.2812,-2.2822,-2.2841,-2.2858,-2.2871,-2.2874,-2.2862,-2.2861,-2.2867,-2.287,-2.287,-2.2869,-2.2784,-2.2859,-2.2858,-2.2858,-2.2857,-2.2857,-2.2774,-2.2791,-2.2797,-2.2814,-2.282,-2.2828,-2.2844,-2.2843,-2.2858,-2.2873,-2.2867,-2.2887,-2.2894,-2.291,-2.2914,-2.293,-2.2919,-2.2928,-2.293,-2.2933,-2.2935,-2.2868,-2.2932,-2.2932,-2.2932,-2.2932,-2.2932,0,-2.2844,-2.2846,-2.2861,-2.2874,-2.2887,-2.2874,-2.2883,-2.2894,-2.2912,-2.2919,-2.2931,-2.2951,-2.2966,-2.2966,-2.2981,-2.2993,-2.2987,-2.2997,-2.2995,-2.2996,-2.2945,-2.2937,-2.3001,-2.3001,-2.3001,-2.3001,-2.3001,-2.3001,-2.2881,-2.2909,-2.2906,-2.2935,-2.2938,-2.2957,-2.2963,-2.297,-2.2976,-2.2998,-2.3011,-2.301,-2.3014,-2.3028,-2.3041,-2.304,-2.3046,-2.3057,-2.3055,-2.3007,-2.3,-2.2993,-2.2986,-2.3059,-2.3059,-2.3104,-2.3105,-2.3105]}]]